[[{"header":{"parameterUnit":"m.s-1","parameterCategory":1,"la1":30.2991,"la2":30.254,"lo1":-89.0895,"lo2":-89.0444,"dy":0.0017,"dx":0.0017,"nx":28,"ny":28,"refTime":"2024-04-25T09:00:00:Z","depth":0,"parameterNumber":2,"parameterNumberName":"U-component_of_WINDS"},"data":[0,0,0,0,0,0,0,0,0,0,0,0,0,0,0,0,0,0,0,0,0,0,0,0,0,0,0,0,0,0,0,0,0,0,0,0,0,0,0,0,0,0,0,0,0,0,0,0,0,0,0,0,0,0,0,0,0,0,-0.1381,-0.138,0,-0.1237,-0.1235,-0.1233,-0.1153,-0.1153,-0.1152,-0.1152,-0.1001,-0.0997,-0.0993,0,0,0,0,0,0,0,0,0,0,0,0,0,-0.1586,-0.1582,-0.1381,-0.1379,-0.1378,-0.1237,-0.1235,-0.1233,-0.1153,-0.1153,-0.1152,-0.1152,-0.1002,-0.0998,-0.0993,0,0,0,0,0,0,0,0,0,0,0,0,0,-0.1475,-0.1581,-0.1382,-0.1321,-0.1314,-0.1237,-0.1235,-0.1232,-0.1153,-0.1153,-0.1152,-0.1152,-0.1004,-0.0998,-0.0992,-0.0964,0,0,-0.0975,-0.0972,0,0,0,0,0,0,0,0,-0.1481,-0.1467,-0.1331,-0.1325,-0.1317,-0.1212,-0.1251,-0.1142,-0.1153,-0.1214,-0.1152,-0.1152,-0.1071,-0.106,-0.1034,-0.0957,-0.095,-0.0974,-0.0971,-0.0968,-0.0967,0,0,0,0,0,0,0,-0.1489,-0.1473,-0.1324,-0.133,-0.1321,-0.13,-0.1284,-0.123,-0.1146,-0.1209,-0.1202,-0.1187,-0.1067,-0.1039,-0.1029,-0.0948,-0.0975,-0.0969,-0.0966,-0.0964,-0.0842,-0.0842,0,0,0,0,0,0,-0.1506,-0.148,-0.1328,-0.132,-0.14,-0.1297,-0.1279,-0.1246,-0.1147,-0.1131,-0.1187,-0.1183,-0.1049,-0.1036,-0.1024,-0.0985,-0.0969,-0.0963,-0.096,-0.0842,-0.0842,-0.0842,0,0,0,0,0,0,-0.1511,-0.1494,-0.1334,-0.1398,-0.1376,-0.1294,-0.1258,-0.1244,-0.1216,-0.113,-0.1115,-0.1174,-0.1048,-0.1032,-0.098,-0.0978,-0.0961,-0.0955,-0.0842,-0.0842,-0.0842,-0.0907,0,0,0,0,0,0,-0.1517,-0.1496,-0.1485,-0.1398,-0.1373,-0.1294,-0.1258,-0.1241,-0.1206,-0.12,-0.1114,-0.1099,-0.1047,-0.0989,-0.0974,-0.097,-0.0951,-0.0841,-0.0842,-0.0842,-0.0904,-0.0909,-0.0913,0,0,0,0,0,-0.1525,-0.1508,-0.1485,-0.1467,-0.1358,-0.1294,-0.1279,-0.122,-0.1207,-0.1195,-0.114,-0.1102,-0.0981,-0.0984,-0.0967,-0.0961,-0.0841,-0.0842,-0.0842,-0.0902,-0.0908,-0.0913,0,0,0,0,0,0,-0.1595,-0.1495,-0.1469,-0.1423,-0.1368,-0.1281,-0.1263,-0.1228,-0.1175,-0.1171,-0.1099,-0.108,-0.1035,-0.0993,-0.0998,-0.0929,-0.0907,-0.0904,-0.0959,-0.0964,-0.0968,-0.0979,-0.0946,0,0,0,0,0,-0.1605,-0.1563,-0.1478,-0.1446,-0.1419,-0.1347,-0.1317,-0.1276,-0.1215,-0.1191,-0.1133,-0.1074,-0.1023,-0.0991,-0.0939,-0.0898,-0.0878,-0.0885,-0.089,-0.0894,-0.0892,-0.0868,-0.0871,-0.0844,-0.0844,-0.0844,0,0,-0.1626,-0.1566,-0.1543,-0.1458,-0.1411,-0.1368,-0.1327,-0.1283,-0.1251,-0.1184,-0.1132,-0.1087,-0.1017,-0.0971,-0.0948,-0.0934,-0.0895,-0.0894,-0.0898,-0.0894,-0.0869,-0.0872,-0.0874,-0.0844,-0.0844,-0.0844,0,0,-0.1641,-0.1592,-0.156,-0.1514,-0.1443,-0.1395,-0.1388,-0.1306,-0.1274,-0.1221,-0.117,-0.113,-0.1043,-0.0996,-0.096,-0.096,-0.0923,-0.0945,-0.0968,-0.0946,-0.0948,-0.0949,-0.095,-0.0951,-0.0943,-0.0943,-0.0943,0,-0.1676,-0.161,-0.1548,-0.1508,-0.1472,-0.1411,-0.1379,-0.1336,-0.1252,-0.1228,-0.1214,-0.1105,-0.1054,-0.0996,-0.0996,-0.0969,-0.0959,-0.0954,-0.0953,-0.0953,-0.0954,-0.0954,-0.0954,-0.0946,-0.0946,-0.0946,-0.0945,0,-0.1656,-0.1611,-0.1594,-0.1516,-0.1478,-0.1442,-0.1374,-0.1343,-0.1306,-0.1259,-0.1206,-0.1143,-0.1078,-0.1061,-0.1023,-0.0998,-0.0992,-0.0967,-0.0943,-0.0961,-0.0959,-0.0959,-0.0951,-0.095,-0.0949,-0.0948,0,0,-0.1711,-0.16,-0.1595,-0.1559,-0.1477,-0.1441,-0.1402,-0.1339,-0.1315,-0.1258,-0.1224,-0.1152,-0.1129,-0.1089,-0.1045,-0.1026,-0.103,-0.1002,-0.0999,-0.101,-0.0999,-0.102,-0.1021,-0.1006,-0.1005,-0.1005,-0.1006,0,-0.1716,-0.1644,-0.1588,-0.1537,-0.1496,-0.1438,-0.1404,-0.1349,-0.1305,-0.1262,-0.1212,-0.1163,-0.1135,-0.1111,-0.1089,-0.1035,-0.1027,-0.1034,-0.0973,-0.0971,-0.0993,-0.102,-0.1041,-0.1044,-0.1004,-0.1004,-0.1004,0,-0.1711,-0.1659,-0.1605,-0.1528,-0.1508,-0.1479,-0.1418,-0.1378,-0.1315,-0.1284,-0.1241,-0.1196,-0.1152,-0.1133,-0.1071,-0.1077,-0.1048,-0.1018,-0.1017,-0.1009,-0.0989,-0.1014,-0.1044,-0.1045,-0.1002,-0.1003,-0.1003,0,-0.1759,-0.1675,-0.1631,-0.1602,-0.1511,-0.1492,-0.1453,-0.139,-0.1357,-0.1303,-0.128,-0.1221,-0.1189,-0.1145,-0.1085,-0.1077,-0.103,-0.1006,-0.1003,-0.1005,-0.0996,-0.0998,-0.1023,-0.0977,-0.0977,-0.0977,-0.0977,0,-0.177,-0.174,-0.1652,-0.1625,-0.1589,-0.1525,-0.1491,-0.1446,-0.1391,-0.1355,-0.13,-0.1267,-0.119,-0.1148,-0.1101,-0.1058,-0.1043,-0.1017,-0.1005,-0.1022,-0.1026,-0.1003,-0.1001,-0.0977,-0.0977,-0.0977,-0.0977,0,-0.1817,-0.1757,-0.1706,-0.1625,-0.1604,-0.1581,-0.1511,-0.1483,-0.1435,-0.139,-0.1376,-0.1301,-0.1249,-0.1185,-0.1111,-0.108,-0.1041,-0.1022,-0.1063,-0.1056,-0.1058,-0.1059,-0.107,-0.1068,-0.1023,-0.1024,-0.1024,0,-0.1829,-0.1804,-0.172,-0.1693,-0.1656,-0.1612,-0.1578,-0.1513,-0.148,-0.1407,-0.1388,-0.1332,-0.1283,-0.1201,-0.114,-0.1084,-0.1064,-0.1072,-0.1055,-0.1074,-0.1065,-0.1068,-0.1065,-0.1076,-0.1077,-0.1078,-0.1078,0,-0.1856,-0.1828,-0.1782,-0.1725,-0.1687,-0.1639,-0.1588,-0.1568,-0.1493,-0.1459,-0.1405,-0.1368,-0.1293,-0.1238,-0.1174,-0.1132,-0.1093,-0.1084,-0.1081,-0.1099,-0.1124,-0.1111,-0.1076,-0.1084,-0.1084,-0.1083,-0.1083,-0.1083,-0.1886,-0.1862,-0.18,-0.175,-0.1706,-0.166,-0.1631,-0.158,-0.1535,-0.147,-0.1435,-0.1382,-0.132,-0.123,-0.1191,-0.1148,-0.1134,-0.1129,-0.1128,-0.1128,-0.1133,-0.113,-0.1136,-0.1136,-0.1135,-0.1135,-0.1135,0,-0.1912,-0.1869,-0.1824,-0.1756,-0.1718,-0.1685,-0.1628,-0.1597,-0.1552,-0.1498,-0.1452,-0.1391,-0.1337,-0.1272,-0.1214,-0.1193,-0.1173,-0.118,-0.1181,-0.1172,-0.1149,-0.1158,-0.1196,-0.1196,-0.1196,-0.1196,-0.1196,-0.1196,-0.1921,-0.1878,-0.1843,-0.1778,-0.1735,-0.1685,-0.1655,-0.1613,-0.157,-0.1504,-0.146,-0.1418,-0.136,-0.1297,-0.1247,-0.1229,-0.121,-0.1223,-0.12,-0.1179,-0.1174,-0.1169,-0.1177,-0.1219,-0.1219,-0.1226,-0.1227,-0.1227]},{"header":{"parameterUnit":"m.s-1","parameterCategory":1,"la1":30.2991,"la2":30.254,"lo1":-89.0895,"lo2":-89.0444,"dy":0.0017,"dx":0.0017,"nx":28,"ny":28,"refTime":"2024-04-25T09:00:00:Z","depth":0,"parameterNumber":3,"parameterNumberName":"V-component_of_WINDS"},"data":[0,0,0,0,0,0,0,0,0,0,0,0,0,0,0,0,0,0,0,0,0,0,0,0,0,0,0,0,0,0,0,0,0,0,0,0,0,0,0,0,0,0,0,0,0,0,0,0,0,0,0,0,0,0,0,0,0,0,3.4047,3.4046,0,3.4019,3.4019,3.4019,3.3981,3.3981,3.398,3.398,3.395,3.395,3.3949,0,0,0,0,0,0,0,0,0,0,0,0,0,3.4067,3.4066,3.4047,3.4046,3.4046,3.4019,3.4019,3.4018,3.3982,3.3981,3.398,3.3979,3.395,3.395,3.3949,0,0,0,0,0,0,0,0,0,0,0,0,0,3.405,3.4066,3.4047,3.4024,3.4022,3.4019,3.4019,3.4018,3.3982,3.3981,3.398,3.3979,3.395,3.395,3.3949,3.3965,0,0,3.3948,3.3948,0,0,0,0,0,0,0,0,3.4051,3.405,3.4028,3.4026,3.4023,3.4003,3.4015,3.4001,3.3982,3.3997,3.398,3.3979,3.3968,3.3966,3.3963,3.3964,3.3963,3.3948,3.3948,3.3948,3.3948,0,0,0,0,0,0,0,3.4052,3.4051,3.4036,3.4028,3.4025,3.4016,3.4012,3.4012,3.3988,3.3996,3.3993,3.399,3.3967,3.3963,3.3962,3.3962,3.3948,3.3948,3.3948,3.3948,3.3977,3.3978,0,0,0,0,0,0,3.4057,3.4052,3.4037,3.4035,3.4035,3.4016,3.4012,3.401,3.3988,3.3984,3.3991,3.3989,3.3964,3.3962,3.3961,3.3979,3.3948,3.3948,3.3947,3.3976,3.3977,3.3978,0,0,0,0,0,0,3.4058,3.4056,3.4038,3.4043,3.404,3.4017,3.4015,3.401,3.4007,3.3984,3.398,3.3992,3.3964,3.3961,3.3965,3.3977,3.3947,3.3947,3.3974,3.3976,3.3977,3.4015,0,0,0,0,0,0,3.4058,3.4057,3.4063,3.4043,3.4039,3.4043,3.4015,3.401,3.4007,3.4003,3.3984,3.398,3.3963,3.3966,3.3965,3.3976,3.3947,3.3973,3.3975,3.3977,3.4013,3.4018,3.4022,0,0,0,0,0,3.4059,3.4074,3.4063,3.4061,3.4047,3.4043,3.4041,3.4021,3.4008,3.4014,3.3999,3.3981,3.3976,3.3966,3.3965,3.3977,3.3972,3.3975,3.3977,3.4011,3.4017,3.4022,0,0,0,0,0,0,3.4094,3.4071,3.4059,3.4067,3.4058,3.4037,3.4044,3.4028,3.4022,3.4019,3.3994,3.399,3.3997,3.3987,3.3976,3.3992,3.3972,3.3974,3.3998,3.4004,3.4008,3.401,3.3947,0,0,0,0,0,3.4103,3.4103,3.4082,3.4092,3.4088,3.4067,3.4065,3.405,3.4039,3.4035,3.4021,3.401,3.4007,3.4005,3.4,3.4011,3.4007,3.4019,3.4024,3.4028,3.403,3.4036,3.4041,3.3985,3.3985,3.3985,0,0,3.4121,3.4108,3.411,3.4099,3.409,3.409,3.4064,3.4065,3.4065,3.4035,3.4038,3.4027,3.4014,3.4022,3.4025,3.4014,3.4044,3.403,3.4034,3.4033,3.4039,3.4044,3.4049,3.3987,3.3986,3.3986,0,0,3.4154,3.4145,3.4152,3.4144,3.4131,3.4117,3.4119,3.4101,3.4093,3.4096,3.4074,3.4073,3.4067,3.4059,3.4054,3.4086,3.4069,3.4085,3.411,3.4116,3.4121,3.4124,3.4136,3.4141,3.4087,3.4087,3.4087,0,3.4178,3.4178,3.4157,3.4161,3.4157,3.4131,3.4138,3.4131,3.4117,3.4115,3.4103,3.4096,3.4085,3.4091,3.4099,3.4096,3.4098,3.4087,3.4122,3.4125,3.4129,3.414,3.4144,3.4089,3.4089,3.4089,3.4089,0,3.4209,3.4209,3.4216,3.4205,3.4202,3.4207,3.4187,3.4186,3.4173,3.416,3.4164,3.415,3.4143,3.4143,3.4129,3.4148,3.4142,3.4126,3.4105,3.4136,3.4146,3.415,3.4092,3.4092,3.4091,3.4091,0,0,3.4262,3.424,3.4243,3.4238,3.4222,3.4222,3.4226,3.422,3.422,3.4212,3.4215,3.4211,3.4197,3.4192,3.4177,3.4183,3.421,3.4166,3.4166,3.4175,3.423,3.4242,3.4248,3.4199,3.4199,3.42,3.4232,0,3.4292,3.4299,3.4281,3.4292,3.4292,3.4268,3.4272,3.4263,3.4252,3.4251,3.4238,3.4236,3.4217,3.4214,3.4219,3.4206,3.422,3.4203,3.4201,3.4202,3.4206,3.4253,3.4265,3.4295,3.4235,3.4236,3.4236,0,3.4328,3.4323,3.4334,3.4319,3.4319,3.4323,3.4316,3.4315,3.4304,3.4296,3.4291,3.4274,3.4277,3.4258,3.4262,3.4251,3.4249,3.4243,3.4243,3.4242,3.4221,3.4253,3.4305,3.4309,3.4242,3.4242,3.4241,0,3.4367,3.4362,3.4369,3.4365,3.4347,3.4351,3.4344,3.4332,3.433,3.4324,3.4323,3.4317,3.4314,3.431,3.4292,3.428,3.4299,3.4278,3.4293,3.4293,3.4297,3.4297,3.435,3.4296,3.4296,3.4296,3.4296,0,3.4403,3.441,3.4386,3.439,3.4398,3.4378,3.4387,3.4377,3.4368,3.437,3.4348,3.435,3.4327,3.4326,3.4312,3.4319,3.4317,3.4311,3.4307,3.4313,3.4314,3.4311,3.4309,3.4297,3.4297,3.4297,3.4297,0,3.4447,3.4431,3.4436,3.442,3.4416,3.4423,3.4409,3.4412,3.44,3.4402,3.4402,3.4383,3.4381,3.4364,3.4358,3.4349,3.4361,3.4353,3.4364,3.4362,3.4378,3.4377,3.443,3.4437,3.4379,3.438,3.438,0,3.4471,3.4476,3.4461,3.4461,3.4455,3.4455,3.4453,3.4434,3.4432,3.4422,3.4426,3.4424,3.442,3.4419,3.4405,3.4401,3.4393,3.4412,3.4392,3.4398,3.4393,3.4393,3.4394,3.4416,3.4417,3.4417,3.4418,0,3.4515,3.4507,3.4505,3.4501,3.4499,3.4495,3.4489,3.449,3.4469,3.4468,3.4467,3.4465,3.446,3.4457,3.4451,3.4443,3.4427,3.4424,3.4427,3.4433,3.444,3.4437,3.4376,3.4423,3.4422,3.4422,3.4422,3.4421,3.455,3.4554,3.4544,3.4543,3.4537,3.4533,3.4535,3.4524,3.4523,3.4518,3.4506,3.4507,3.4498,3.4488,3.4482,3.4482,3.4472,3.4477,3.4478,3.4479,3.4483,3.444,3.4481,3.4481,3.4481,3.448,3.448,0,3.4593,3.4586,3.4585,3.4579,3.4578,3.4564,3.4557,3.4557,3.4558,3.4551,3.4549,3.4548,3.4546,3.4532,3.4529,3.4532,3.4524,3.4531,3.4531,3.453,3.4492,3.4489,3.4538,3.4538,3.4538,3.4538,3.4538,3.4538,3.4616,3.4623,3.4614,3.4618,3.4611,3.4612,3.4609,3.4605,3.46,3.46,3.4599,3.459,3.458,3.4576,3.4574,3.457,3.457,3.4579,3.4573,3.4538,3.4532,3.4527,3.4525,3.458,3.458,3.4611,3.4611,3.4612]}]]